Location: Unspecified
(0.0000°N, 0.0000°E)
Time: 19:34:41
(UTC+00:00)

Courier 1B Rocket - All Passes

Search period start: 20 May 2025 00:00
Search period end: 30 May 2025 00:00
Orbit: 920 x 1201 km, 28.3° (Epoch: 20 May)

Date Brightness Start Highest point End Pass type
(mag) Time Alt. Az. Time Alt. Az. Time Alt. Az.
20 May - 05:04:44 10° SSW 05:10:23 28° SSE 05:16:19 10° E visible
20 May - 06:57:03 10° WSW 07:04:01 84° NNW 07:11:32 10° ENE daylight
20 May - 08:52:02 10° W 08:58:01 27° NNW 09:04:17 10° NNE daylight
20 May - 16:34:47 10° NNW 16:40:43 25° NNE 16:46:21 10° ENE daylight
20 May - 18:27:26 10° WNW 18:34:39 82° NNE 18:41:21 10° ESE visible
20 May - 20:22:31 10° W 20:28:12 28° SSW 20:33:37 10° SSE visible
21 May - 04:04:33 10° SSW 04:08:56 19° SSE 04:13:29 10° ESE visible
21 May - 05:55:58 10° SW 06:02:39 66° SSE 06:09:53 10° ENE daylight
21 May - 07:49:56 10° W 07:56:25 38° NNW 08:03:18 10° NE daylight
21 May - 09:47:45 10° NW 09:51:04 13° NNW 09:54:26 10° N daylight
21 May - 15:34:05 10° NNW 15:39:00 18° NNE 15:43:46 10° ENE daylight
21 May - 17:26:03 10° NW 17:33:17 55° NNE 17:40:00 10° ESE daylight
21 May - 19:20:14 10° W 19:26:53 43° SSW 19:33:07 10° SE visible
21 May - 21:18:26 10° SW 21:20:50 12° SSW 21:23:12 10° S visible
22 May - 03:05:10 10° S 03:07:24 12° SSE 03:09:40 10° SE visible
22 May - 04:55:11 10° SW 05:01:21 43° SSE 05:07:56 10° E visible
22 May - 06:48:15 10° WSW 06:54:56 55° NNW 07:02:08 10° NE daylight
22 May - 08:44:28 10° WNW 08:49:12 18° NNW 08:54:06 10° NNE daylight
22 May - 14:33:46 10° N 14:37:08 13° NNE 14:40:27 10° NE daylight
22 May - 16:24:53 10° NW 16:31:47 38° NNE 16:38:18 10° E daylight
22 May - 18:18:18 10° WNW 18:25:34 67° SSW 18:32:18 10° SE visible
22 May - 20:14:40 10° WSW 20:19:18 19° SSW 20:23:46 10° SSE visible
23 May - 03:54:40 10° SSW 04:00:03 28° SSE 04:05:39 10° E visible
23 May - 05:46:55 10° WSW 05:53:35 82° NNW 06:00:45 10° ENE daylight
23 May - 07:41:54 10° WNW 07:47:30 25° NNW 07:53:24 10° NNE daylight
23 May - 15:23:54 10° NNW 15:30:11 27° NNE 15:36:12 10° E daylight
23 May - 17:16:39 10° WNW 17:24:12 83° NNE 17:31:14 10° ESE daylight
23 May - 19:11:50 10° W 19:17:52 29° SSW 19:23:33 10° SSE visible
24 May - 02:54:30 10° SSW 02:58:39 18° SSE 03:02:55 10° ESE visible
24 May - 04:45:53 10° SW 04:52:18 66° SSE 04:59:10 10° ENE visible
24 May - 06:39:50 10° W 06:45:57 36° NNW 06:52:28 10° NE daylight
24 May - 08:37:51 10° NW 08:40:32 12° NNW 08:43:17 10° N daylight
24 May - 14:23:11 10° NNW 14:28:26 19° NNE 14:33:33 10° ENE daylight
24 May - 16:15:14 10° NW 16:22:45 57° NNE 16:29:50 10° ESE daylight
24 May - 18:09:30 10° W 18:16:28 44° SSW 18:23:00 10° SE visible
24 May - 20:07:39 10° SW 20:10:31 13° SSW 20:13:19 10° S visible
25 May - 01:55:10 10° S 01:57:09 11° SSE 01:59:09 10° SE night (unlit)
25 May - 03:45:06 10° SW 03:51:04 42° SSE 03:57:19 10° E visible
25 May - 05:38:11 10° WSW 05:44:33 53° NNW 05:51:22 10° NE daylight
25 May - 07:34:28 10° WNW 07:38:43 17° NNW 07:43:08 10° NNE daylight
25 May - 13:22:52 10° N 13:26:32 14° NNE 13:30:11 10° NE daylight
25 May - 15:14:02 10° NW 15:21:12 39° NNE 15:28:04 10° E daylight
25 May - 17:07:31 10° WNW 17:15:04 66° SSW 17:22:08 10° SE daylight
25 May - 19:03:56 10° WSW 19:08:55 20° SSW 19:13:43 10° SSE visible
26 May - 02:44:34 10° SSW 02:49:48 27° SSE 02:55:10 10° E visible
26 May - 04:36:51 10° WSW 04:43:16 80° NNW 04:50:05 10° ENE visible
26 May - 06:31:53 10° WNW 06:37:04 23° NNW 06:42:32 10° NNE daylight
26 May - 14:13:06 10° NNW 14:19:33 28° NNE 14:25:52 10° E daylight
26 May - 16:05:50 10° WNW 16:13:37 85° NNE 16:20:59 10° ESE daylight
26 May - 18:01:04 10° W 18:07:25 30° SSW 18:13:25 10° SSE daylight
27 May - 01:44:22 10° SSW 01:48:26 18° SSE 01:52:32 10° ESE visible
27 May - 03:35:48 10° SW 03:42:02 67° SSE 03:48:35 10° ENE visible
27 May - 05:29:49 10° W 05:35:35 34° NNW 05:41:42 10° NE visible
27 May - 07:28:20 10° NNW 07:30:06 11° NNW 07:31:53 10° N daylight
27 May - 13:12:25 10° NNW 13:17:48 20° NNE 13:23:09 10° ENE daylight
27 May - 15:04:26 10° NW 15:12:07 59° NNE 15:19:30 10° ESE daylight
27 May - 16:58:42 10° W 17:05:56 44° SSW 17:12:47 10° SE daylight
27 May - 18:56:45 10° SW 19:00:07 14° SSW 19:03:24 10° S visible
28 May - 00:44:53 10° S 00:46:56 12° SSE 00:48:58 10° SE night (unlit)
28 May - 02:34:58 10° SW 02:40:51 42° SSE 02:46:52 10° E visible
28 May - 04:28:08 10° WSW 04:34:15 50° NNW 04:40:42 10° NE visible
28 May - 06:24:36 10° WNW 06:28:19 15° NNW 06:32:10 10° NNE daylight
28 May - 12:12:10 10° N 12:15:55 14° NNE 12:19:41 10° NE daylight
28 May - 14:03:17 10° NW 14:10:32 41° NNE 14:17:40 10° E daylight
28 May - 15:56:43 10° WNW 16:04:27 66° SSW 16:11:51 10° SE daylight
28 May - 17:53:07 10° WSW 17:58:27 21° SSW 18:03:35 10° SSE daylight
29 May - 01:34:23 10° SSW 01:39:36 27° SSE 01:44:50 10° E visible
29 May - 03:26:47 10° WSW 03:33:02 78° NNW 03:39:32 10° NE visible
29 May - 05:21:56 10° WNW 05:26:44 22° NNW 05:31:45 10° NNE visible
29 May - 13:02:24 10° NNW 13:08:53 28° NNE 13:15:22 10° E daylight
29 May - 14:55:04 10° WNW 15:02:57 86° NNE 15:10:36 10° ESE daylight
29 May - 16:50:16 10° W 16:56:51 30° SSW 17:03:11 10° SSE daylight
